�v������,���r���O(���x),�����t���O,���r���O(���x),�����t���O,��1(���x),�����t���O,��2���x),�����t���O,�������x,�����t���O
8/1/2003 0:00,25.2,1,76.5,1,0,0,26.7,1,26.8,1
8/1/2003 0:15,27.2,1,69.5,1,0,0,27.1,1,25.7,1
8/1/2003 0:30,27.4,1,68.2,1,0,0,27.3,1,24.2,1
8/1/2003 0:45,27.5,1,68,1,0,0,27.3,1,24.3,1
8/1/2003 1:00,27.6,1,68.3,1,0,0,27.3,1,24.4,1
8/1/2003 1:15,27.7,1,67.9,1,0,0,27.3,1,24.4,1
8/1/2003 1:30,27.7,1,67.6,1,0,0,27.3,1,24.4,1
8/1/2003 1:45,27.7,1,67.4,1,0,0,27.3,1,24.5,1
8/1/2003 2:00,27.7,1,67.4,1,0,0,27.3,1,24.5,1
8/1/2003 2:15,27.7,1,67.5,1,0,0,27.2,1,24.5,1
8/1/2003 2:30,27.6,1,67.8,1,0,0,27.2,1,24.6,1
8/1/2003 2:45,27.5,1,67.6,1,0,0,27.2,1,24.6,1
8/1/2003 3:00,27.5,1,67.8,1,0,0,27.1,1,24.6,1
8/1/2003 3:15,27.4,1,67.7,1,0,0,27.1,1,24.6,1
8/1/2003 3:30,27.4,1,67.8,1,0,0,27,1,24.7,1
8/1/2003 3:45,27.4,1,67.8,1,0,0,27,1,24.7,1
8/1/2003 4:00,27.4,1,46.1,1,0,0,27,1,24.7,1
8/1/2003 4:15,27.4,1,67.5,1,0,0,26.9,1,24.7,1
8/1/2003 4:30,27.3,1,67.5,1,0,0,26.9,1,24.7,1
8/1/2003 4:45,27.4,1,67.7,1,0,0,26.8,1,24.7,1
8/1/2003 5:00,27.3,1,67.6,1,0,0,26.8,1,24.7,1
8/1/2003 5:15,27.3,1,67.5,1,0,0,26.8,1,24.7,1
8/1/2003 5:30,27.2,1,46,1,0,0,26.7,1,24.7,1
8/1/2003 5:45,27.2,1,67.5,1,0,0,26.7,1,24.7,1
8/1/2003 6:00,27.2,1,67.7,1,0,0,26.6,1,24.8,1
8/1/2003 6:15,27.3,1,67.5,1,0,0,26.6,1,24.7,1
8/1/2003 6:30,27.2,1,68.1,1,0,0,26.6,1,22.9,1
8/1/2003 6:45,27,1,69.1,1,0,0,26.5,1,23,1
8/1/2003 7:00,26.9,1,70,1,0,0,26.5,1,23.1,1
8/1/2003 7:15,26.9,1,69.7,1,0,0,26.4,1,23.2,1
8/1/2003 7:30,26.8,1,69.9,1,0,0,26.3,1,23.3,1
8/1/2003 7:45,26.8,1,70.3,1,0,0,26.3,1,23.3,1
8/1/2003 8:00,26.7,1,70.4,1,0,0,26.2,1,22.6,1
8/1/2003 8:15,26.8,1,70,1,0,0,26.2,1,22.7,1
8/1/2003 8:30,26.6,1,49.1,1,0,0,26.1,1,22.7,1
8/1/2003 8:45,26.8,1,69.5,1,0,0,26.2,1,22.8,1
8/1/2003 9:00,26.8,1,69.6,1,0,0,26.2,1,22.9,1
8/1/2003 9:15,26.8,1,69.3,1,0,0,26.2,1,22.9,1
8/1/2003 9:30,26.8,1,69.2,1,0,0,26.3,1,23,1
8/1/2003 9:45,26.9,1,69,1,0,0,26.3,1,23.1,1
8/1/2003 10:00,26.9,1,68.8,1,0,0,26.3,1,23.1,1
8/1/2003 10:15,26.9,1,68.9,1,0,0,26.4,1,23.2,1
8/1/2003 10:30,27,1,68.9,1,0,0,26.5,1,22.9,1
8/1/2003 10:45,27.5,1,67.1,1,0,0,26.5,1,23,1
8/1/2003 11:00,27.6,1,61.4,1,0,0,26.6,1,23.1,1
8/1/2003 11:15,27.7,1,66.5,1,0,0,26.7,1,23,1
8/1/2003 11:30,27.9,1,66.5,1,0,0,26.8,1,23.1,1
8/1/2003 11:45,28,1,66.2,1,0,0,27,1,23.2,1
8/1/2003 12:00,28,1,66.1,1,0,0,27.1,1,23.3,1
8/1/2003 12:15,28.1,1,66,1,0,0,27.3,1,23.3,1
8/1/2003 12:30,28.2,1,66,1,0,0,27.5,1,23.4,1
8/1/2003 12:45,28.2,1,66,1,0,0,27.7,1,23.5,1
8/1/2003 13:00,28.3,1,66.2,1,0,0,27.9,1,23.6,1
8/1/2003 13:15,28.4,1,66.2,1,0,0,28.1,1,23.6,1
8/1/2003 13:30,28.5,1,66.1,1,0,0,28.3,1,23.7,1
8/1/2003 13:45,28.6,1,66.1,1,0,0,28.5,1,23.8,1
8/1/2003 14:00,28.6,1,66.3,1,0,0,28.7,1,23.9,1
8/1/2003 14:15,28.7,1,53.2,1,0,0,28.9,1,23.9,1
8/1/2003 14:30,28.8,1,66.5,1,0,0,29.1,1,24,1
8/1/2003 14:45,28.9,1,66.4,1,0,0,29.3,1,24.1,1
8/1/2003 15:00,29,1,66.4,1,0,0,29.4,1,24.1,1
8/1/2003 15:15,29,1,66.3,1,0,0,29.5,1,24.2,1
8/1/2003 15:30,29.1,1,66.2,1,0,0,29.6,1,24.2,1
8/1/2003 15:45,29.2,1,66,1,0,0,29.7,1,24.3,1
8/1/2003 16:00,29.3,1,66,1,0,0,29.9,1,24.4,1
8/1/2003 16:15,29.4,1,65.9,1,0,0,30,1,24.4,1
8/1/2003 16:30,29.4,1,65.9,1,0,0,30.1,1,24.5,1
8/1/2003 16:45,29.5,1,66,1,0,0,30.2,1,24.5,1
8/1/2003 17:00,29.6,1,65.6,1,0,0,30.3,1,24.6,1
8/1/2003 17:15,29.7,1,65.5,1,0,0,30.3,1,24.7,1
8/1/2003 17:30,29.7,1,65.3,1,0,0,30.4,1,24.7,1
8/1/2003 17:45,29.8,1,65.1,1,0,0,30.4,1,24.8,1
8/1/2003 18:00,29.8,1,65,1,0,0,30.4,1,24.8,1
8/1/2003 18:15,29.8,1,64.9,1,0,0,30.4,1,24.9,1
8/1/2003 18:30,29.9,1,64.8,1,0,0,30.4,1,24.9,1
8/1/2003 18:45,29.9,1,64.7,1,0,0,30.3,1,25,1
8/1/2003 19:00,29.9,1,64.6,1,0,0,30.3,1,25.1,1
8/1/2003 19:15,29.9,1,64.6,1,0,0,30.2,1,25.1,1
8/1/2003 19:30,29.9,1,64.4,1,0,0,30.1,1,25.1,1
8/1/2003 19:45,29.9,1,64.2,1,0,0,30,1,25.2,1
8/1/2003 20:00,29.8,1,64.6,1,0,0,30,1,25.2,1
8/1/2003 20:15,29.7,1,64.4,1,0,0,29.9,1,25.3,1
8/1/2003 20:30,29.6,1,64.4,1,0,0,29.7,1,23.9,1
8/1/2003 20:45,29.5,1,64.5,1,0,0,29.4,1,24,1
8/1/2003 21:00,29.4,1,64.4,1,0,0,29.1,1,24.1,1
8/1/2003 21:15,29.3,1,61.3,1,0,0,28.9,1,24.3,1
8/1/2003 21:30,29.2,1,64.7,1,0,0,28.7,1,24.4,1
8/1/2003 21:45,29.1,1,64.8,1,0,0,28.5,1,24.4,1
8/1/2003 22:00,29,1,65.1,1,0,0,28.4,1,24.5,1
8/1/2003 22:15,29,1,65.2,1,0,0,28.3,1,24.6,1
8/1/2003 22:30,28.9,1,65.4,1,0,0,28.2,1,24.6,1
8/1/2003 22:45,28.8,1,65.5,1,0,0,28.1,1,24.7,1
8/1/2003 23:00,28.8,1,65.9,1,0,0,27.9,1,24.7,1
8/1/2003 23:15,28.7,1,66.1,1,0,0,27.8,1,24.7,1
8/1/2003 23:30,28.6,1,66.2,1,0,0,27.7,1,24.8,1
8/1/2003 23:45,28.6,1,66.4,1,0,0,27.6,1,24.8,1
8/2/2003 0:00,28.5,1,66.5,1,0,0,27.5,1,24.8,1
8/2/2003 0:15,28.4,1,66.5,1,0,0,27.3,1,24.9,1
8/2/2003 0:30,28.4,1,66.9,1,0,0,27.2,1,24.9,1
8/2/2003 0:45,28.4,1,66.8,1,0,0,27,1,24.9,1
8/2/2003 1:00,28.4,1,66.9,1,0,0,27,1,24.9,1
8/2/2003 1:15,28.4,1,66.7,1,0,0,27,1,24.9,1
8/2/2003 1:30,28.4,1,66.8,1,0,0,27,1,24.9,1
8/2/2003 1:45,28.3,1,66.7,1,0,0,27,1,25,1
8/2/2003 2:00,28.3,1,66.8,1,0,0,26.9,1,25,1
8/2/2003 2:15,28.3,1,66.9,1,0,0,26.9,1,25,1
8/2/2003 2:30,28.2,1,67,1,0,0,26.8,1,25,1
8/2/2003 2:45,28.2,1,67.1,1,0,0,26.8,1,25,1
8/2/2003 3:00,28.2,1,67.1,1,0,0,26.8,1,25,1
8/2/2003 3:15,28.1,1,52.5,1,0,0,26.7,1,25,1
8/2/2003 3:30,28.1,1,67,1,0,0,26.6,1,25.1,1
8/2/2003 3:45,28.1,1,67,1,0,0,26.5,1,25.1,1
8/2/2003 4:00,28,1,67.1,1,0,0,26.4,1,25.1,1
8/2/2003 4:15,28,1,67.2,1,0,0,26.4,1,25.1,1
8/2/2003 4:30,28,1,67.3,1,0,0,26.4,1,25.1,1
8/2/2003 4:45,28,1,67.5,1,0,0,26.4,1,25.1,1
8/2/2003 5:00,28,1,67.5,1,0,0,26.3,1,25.1,1
8/2/2003 5:15,28,1,67.7,1,0,0,26.3,1,25.1,1
8/2/2003 5:30,28,1,67.9,1,0,0,26.3,1,24.1,1
8/2/2003 5:45,28,1,67.9,1,0,0,26.2,1,24.1,1
8/2/2003 6:00,28,1,68.2,1,0,0,26.2,1,24.2,1
8/2/2003 6:15,28,1,68.4,1,0,0,26.2,1,24.2,1
8/2/2003 6:30,28,1,68.5,1,0,0,26.1,1,24.3,1
8/2/2003 6:45,28,1,68.8,1,0,0,26.1,1,24.3,1
8/2/2003 7:00,28.1,1,68.8,1,0,0,26.2,1,24.3,1
8/2/2003 7:15,28.1,1,68.8,1,0,0,26.2,1,24.4,1
8/2/2003 7:30,28.1,1,68.9,1,0,0,26.2,1,24.4,1
8/2/2003 7:45,28.2,1,68.8,1,0,0,26.3,1,24.4,1
8/2/2003 8:00,28.2,1,68.8,1,0,0,26.3,1,24.4,1
8/2/2003 8:15,28.2,1,68.5,1,0,0,26.5,1,24.5,1
8/2/2003 8:30,28.3,1,53.8,1,0,0,26.6,1,24.5,1
8/2/2003 8:45,28.3,1,68.5,1,0,0,26.7,1,24.5,1
8/2/2003 9:00,28.4,1,68.6,1,0,0,26.9,1,23.9,1
8/2/2003 9:15,28.4,1,68.8,1,0,0,27.1,1,23.4,1
8/2/2003 9:30,28.4,1,68.6,1,0,0,27.2,1,23.2,1
8/2/2003 9:45,28.5,1,68.7,1,0,0,27.4,1,23.4,1
8/2/2003 10:00,28.5,1,68.8,1,0,0,27.6,1,23.5,1
8/2/2003 10:15,28.6,1,68.7,1,0,0,27.8,1,23.6,1
8/2/2003 10:30,28.8,1,69.5,1,0,0,28.1,1,23.7,1
8/2/2003 10:45,28.9,1,69.1,1,0,0,28.3,1,23.8,1
8/2/2003 11:00,29,1,68.8,1,0,0,28.6,1,23.9,1
8/2/2003 11:15,29.1,1,54.4,1,0,0,28.8,1,24,1
8/2/2003 11:30,29.2,1,61.6,1,0,0,29.1,1,24.1,1
8/2/2003 11:45,29.4,1,68.5,1,0,0,29.3,1,24.2,1
8/2/2003 12:00,29.5,1,68.2,1,0,0,29.6,1,24.3,1
8/2/2003 12:15,29.7,1,67.4,1,0,0,29.8,1,23.7,1
8/2/2003 12:30,29.8,1,67.3,1,0,0,30.2,1,23.9,1
8/2/2003 12:45,30,1,67.1,1,0,0,30.5,1,24.1,1
8/2/2003 13:00,30.2,1,56.9,1,0,0,30.9,1,23,1
8/2/2003 13:15,30.4,1,66,1,0,0,31.1,1,23.3,1
8/2/2003 13:30,30.4,1,66.5,1,0,0,31.4,1,23.5,1
8/2/2003 13:45,30.5,1,66.5,1,0,0,31.6,1,23.7,1
8/2/2003 14:00,30.7,1,66.6,1,0,0,31.8,1,23.9,1
8/2/2003 14:15,30.8,1,66.6,1,0,0,32,1,24,1
8/2/2003 14:30,30.9,1,66.4,1,0,0,32.1,1,24.2,1
8/2/2003 14:45,31,1,66.3,1,0,0,32.2,1,24.3,1
8/2/2003 15:00,31.2,1,66.2,1,0,0,32.3,1,24.4,1
8/2/2003 15:15,31.3,1,66.1,1,0,0,32.5,1,24.5,1
8/2/2003 15:30,31.4,1,65.9,1,0,0,32.6,1,24.6,1
8/2/2003 15:45,31.5,1,65.6,1,0,0,32.6,1,24.7,1
8/2/2003 16:00,31.7,1,65.3,1,0,0,32.7,1,24.8,1
8/2/2003 16:15,31.7,1,65.2,1,0,0,32.8,1,24.9,1
8/2/2003 16:30,31.8,1,55.2,1,0,0,32.9,1,25,1
8/2/2003 16:45,31.9,1,65,1,0,0,33,1,25.1,1
8/2/2003 17:00,31.7,1,64.1,1,0,0,32.8,1,24.1,1
8/2/2003 17:15,31.8,1,64.1,1,0,0,32.6,1,24.3,1
8/2/2003 17:30,31.8,1,52.5,1,0,0,32.3,1,24.5,1
8/2/2003 17:45,31.9,1,64.2,1,0,0,32,1,24.7,1
8/2/2003 18:00,31.8,1,63.3,1,0,0,31.5,1,24,1
8/2/2003 18:15,31.8,1,63.2,1,0,0,31.2,1,24.3,1
8/2/2003 18:30,31.8,1,62.9,1,0,0,30.9,1,24.5,1
8/2/2003 18:45,31.6,1,62.5,1,0,0,30.6,1,24.7,1
8/2/2003 19:00,31.7,1,62.3,1,0,0,30.4,1,24.8,1
8/2/2003 19:15,31.6,1,62.5,1,0,0,30.2,1,25,1
8/2/2003 19:30,31.6,1,62.6,1,0,0,30.1,1,25.1,1
8/2/2003 19:45,31.6,1,62.9,1,0,0,30,1,25.2,1
8/2/2003 20:00,31.5,1,62.9,1,0,0,29.9,1,25.3,1
8/2/2003 20:15,31.5,1,63,1,0,0,29.8,1,25.5,1
8/2/2003 20:30,31.5,1,62.8,1,0,0,29.7,1,25.6,1
8/2/2003 20:45,31.4,1,62.8,1,0,0,29.6,1,25.6,1
8/2/2003 21:00,31.3,1,62.5,1,0,0,29.5,1,25.7,1
8/2/2003 21:15,31.2,1,62.4,1,0,0,29.3,1,25.8,1
8/2/2003 21:30,31.1,1,62.4,1,0,0,29.3,1,24.5,1
8/2/2003 21:45,31,1,62.1,1,0,0,29.2,1,24.6,1
8/2/2003 22:00,31,1,62.2,1,0,0,29.2,1,24.8,1
8/2/2003 22:15,30.8,1,60.8,1,0,0,29.1,1,24.9,1
8/2/2003 22:30,30.6,1,60.7,1,0,0,29,1,25.1,1
8/2/2003 22:45,30.7,1,60.3,1,0,0,29,1,25.2,1
8/2/2003 23:00,30.5,1,59.9,1,0,0,28.9,1,25.3,1
8/2/2003 23:15,30.5,1,60.1,1,0,0,28.8,1,25.4,1
8/2/2003 23:30,30.4,1,59.8,1,0,0,28.8,1,25.4,1
8/2/2003 23:45,30.4,1,60,1,0,0,28.8,1,25.5,1
8/3/2003 0:00,30.4,1,47.7,1,0,0,28.8,1,25.6,1
8/3/2003 0:15,30.3,1,59.2,1,0,0,28.7,1,25.7,1
8/3/2003 0:30,30.3,1,59.5,1,0,0,28.7,1,24.5,1
8/3/2003 0:45,30,1,58.9,1,0,0,28.7,1,24.7,1
8/3/2003 1:00,29.9,1,59.6,1,0,0,28.6,1,24.8,1
8/3/2003 1:15,29.9,1,59.8,1,0,0,28.7,1,24.9,1
8/3/2003 1:30,29.9,1,60.2,1,0,0,28.7,1,25,1
8/3/2003 1:45,30,1,48.4,1,0,0,28.5,1,25.1,1
8/3/2003 2:00,29.8,1,60.8,1,0,0,28.6,1,25.2,1
8/3/2003 2:15,29.7,1,61.9,1,0,0,28.5,1,25.3,1
8/3/2003 2:30,29.8,1,62.2,1,0,0,28.5,1,25.4,1
8/3/2003 2:45,29.9,1,62.3,1,0,0,28.5,1,25.4,1
8/3/2003 3:00,29.9,1,62.4,1,0,0,28.5,1,25.5,1
8/3/2003 3:15,29.9,1,62.6,1,0,0,28.5,1,25.6,1
8/3/2003 3:30,29.9,1,62.8,1,0,0,28.5,1,25.6,1
8/3/2003 3:45,29.9,1,63,1,0,0,28.5,1,25.7,1
8/3/2003 4:00,29.9,1,63.1,1,0,0,28.5,1,25.7,1
8/3/2003 4:15,29.9,1,63.5,1,0,0,28.5,1,25.8,1
8/3/2003 4:30,29.9,1,63.4,1,0,0,28.4,1,25.8,1
8/3/2003 4:45,29.9,1,63.1,1,0,0,28.4,1,25.8,1
8/3/2003 5:00,29.8,1,62.9,1,0,0,28.4,1,25.9,1
8/3/2003 5:15,29.8,1,62.7,1,0,0,28.3,1,25.9,1
8/3/2003 5:30,29.8,1,62.8,1,0,0,28.3,1,25.9,1
8/3/2003 5:45,29.7,1,62.9,1,0,0,28.3,1,26,1
8/3/2003 6:00,29.7,1,63,1,0,0,28.3,1,26,1
8/3/2003 6:15,29.7,1,63.2,1,0,0,28.3,1,26,1
8/3/2003 6:30,29.7,1,63.4,1,0,0,28.3,1,26,1
8/3/2003 6:45,29.7,1,63.4,1,0,0,28.3,1,26.1,1
8/3/2003 7:00,29.8,1,63.8,1,0,0,28.3,1,26.1,1
8/3/2003 7:15,29.8,1,64,1,0,0,28.3,1,26.1,1
8/3/2003 7:30,29.8,1,63.9,1,0,0,28.4,1,26.1,1
8/3/2003 7:45,29.8,1,51.6,1,0,0,28.5,1,26.2,1
8/3/2003 8:00,29.9,1,63.7,1,0,0,28.5,1,26.2,1
8/3/2003 8:15,29.9,1,63.4,1,0,0,28.7,1,26.2,1
8/3/2003 8:30,29.9,1,63.6,1,0,0,28.8,1,26.2,1
8/3/2003 8:45,29.9,1,64,1,0,0,28.8,1,25.1,1
8/3/2003 9:00,30,1,64.7,1,0,0,29,1,25.2,1
8/3/2003 9:15,30.1,1,64.9,1,0,0,29.1,1,25.3,1
8/3/2003 9:30,30.2,1,64.9,1,0,0,29.3,1,24.4,1
8/3/2003 9:45,30.2,1,65.6,1,0,0,29.6,1,24.6,1
8/3/2003 10:00,30.3,1,65.5,1,0,0,29.8,1,24.7,1
8/3/2003 10:15,30.5,1,65.5,1,0,0,30,1,24.8,1
8/3/2003 10:30,30.5,1,63.6,1,0,0,30.3,1,24.9,1
8/3/2003 10:45,30.5,1,55.3,1,0,0,30.4,1,23.9,1
8/3/2003 11:00,30.7,1,62.5,1,0,0,30.7,1,24.1,1
8/3/2003 11:15,30.8,1,60.8,1,0,0,31,1,24.3,1
8/3/2003 11:30,30.8,1,58.6,1,0,0,31.2,1,24.5,1
8/3/2003 11:45,31,1,59.5,1,0,0,31.4,1,24.6,1
8/3/2003 12:00,31.2,1,48,1,0,0,31.7,1,24.7,1
8/3/2003 12:15,31.4,1,58.7,1,0,0,32,1,24.9,1
8/3/2003 12:30,31.6,1,58.5,1,0,0,32.3,1,24.1,1
8/3/2003 12:45,31.8,1,59.6,1,0,0,32.5,1,24.4,1
8/3/2003 13:00,31.9,1,50.3,1,0,0,32.8,1,24.6,1
8/3/2003 13:15,32.1,1,58.5,1,0,0,32.9,1,23.7,1
8/3/2003 13:30,32.2,1,58.8,1,0,0,33,1,24,1
8/3/2003 13:45,32.4,1,59.6,1,0,0,33.1,1,24.3,1
8/3/2003 14:00,32.4,1,59.4,1,0,0,33.2,1,24.5,1
8/3/2003 14:15,32.5,1,59.8,1,0,0,33.4,1,24.7,1
8/3/2003 14:30,32.5,1,58.9,1,0,0,33.5,1,24.9,1
8/3/2003 14:45,32.6,1,58.1,1,0,0,33.6,1,25,1
8/3/2003 15:00,32.6,1,58.9,1,0,0,33.8,1,25.2,1
8/3/2003 15:15,32.6,1,58.5,1,0,0,33.8,1,25.3,1
8/3/2003 15:30,32.7,1,58.9,1,0,0,33.9,1,25.5,1
8/3/2003 15:45,32.7,1,58.2,1,0,0,34,1,25.6,1
8/3/2003 16:00,32.7,1,58.3,1,0,0,34,1,25.7,1
8/3/2003 16:15,32.8,1,58.4,1,0,0,34,1,25.9,1
8/3/2003 16:30,32.8,1,57.7,1,0,0,34,1,23.7,1
8/3/2003 16:45,32.8,1,58,1,0,0,34,1,23.9,1
8/3/2003 17:00,32.9,1,58.5,1,0,0,34,1,24.2,1
8/3/2003 17:15,33,1,58.2,1,0,0,33.9,1,24.5,1
8/3/2003 17:30,33.1,1,58.3,1,0,0,33.8,1,24.7,1
8/3/2003 17:45,33.2,1,58.5,1,0,0,33.8,1,24.9,1
8/3/2003 18:00,33.4,1,58.1,1,0,0,33.7,1,25.1,1
8/3/2003 18:15,33.5,1,58.4,1,0,0,33.6,1,24.6,1
8/3/2003 18:30,33.5,1,57.9,1,0,0,33.7,1,25,1
8/3/2003 18:45,33.6,1,57.7,1,0,0,33.7,1,25.3,1
8/3/2003 19:00,33.6,1,57.6,1,0,0,33.7,1,25.5,1
8/3/2003 19:15,33.6,1,57.7,1,0,0,33.7,1,25.7,1
8/3/2003 19:30,33.6,1,57.5,1,0,0,33.6,1,25.9,1
8/3/2003 19:45,33.6,1,57.5,1,0,0,33.6,1,26.1,1
8/3/2003 20:00,33.6,1,47.5,1,0,0,33.6,1,26.2,1
8/3/2003 20:15,33.6,1,57.5,1,0,0,33.5,1,26.4,1
8/3/2003 20:30,33.5,1,57.5,1,0,0,33.5,1,26.5,1
8/3/2003 20:45,33.5,1,57.5,1,0,0,33.4,1,26.6,1
8/3/2003 21:00,33.5,1,57.4,1,0,0,33.4,1,26.7,1
8/3/2003 21:15,33.3,1,57.2,1,0,0,33.2,1,24.3,1
8/3/2003 21:30,33.3,1,57.6,1,0,0,33,1,24.6,1
8/3/2003 21:45,33.2,1,47.7,1,0,0,32.8,1,24.9,1
8/3/2003 22:00,33.2,1,57.7,1,0,0,32.7,1,25.1,1
8/3/2003 22:15,33.1,1,57.7,1,0,0,32.6,1,25.4,1
8/3/2003 22:30,33.1,1,57.7,1,0,0,32.5,1,25.6,1
8/3/2003 22:45,33.1,1,58,1,0,0,32.4,1,25.7,1
8/3/2003 23:00,33,1,58.1,1,0,0,32.4,1,25.9,1
8/3/2003 23:15,33,1,58.3,1,0,0,32.4,1,26,1
8/3/2003 23:30,32.9,1,58.2,1,0,0,32.3,1,26.1,1
8/3/2003 23:45,32.9,1,58.2,1,0,0,32.3,1,26.2,1
8/4/2003 0:00,32.8,1,58,1,0,0,32.3,1,26.3,1
8/4/2003 0:15,32.7,1,57.9,1,0,0,32.2,1,26.3,1
8/4/2003 0:30,32.6,1,47.9,1,0,0,32.2,1,26.4,1
8/4/2003 0:45,32.5,1,58.1,1,0,0,32.1,1,26.5,1
8/4/2003 1:00,32.4,1,58.2,1,0,0,32.1,1,26.6,1
8/4/2003 1:15,32.3,1,58.4,1,0,0,32,1,26.6,1
8/4/2003 1:30,32.3,1,58.6,1,0,0,31.9,1,26.7,1
8/4/2003 1:45,32.2,1,58.9,1,0,0,31.8,1,26.7,1
8/4/2003 2:00,32.1,1,59,1,0,0,31.8,1,26.8,1
8/4/2003 2:15,32,1,59.2,1,0,0,31.7,1,26.8,1
8/4/2003 2:30,31.9,1,59.1,1,0,0,31.6,1,26.8,1
8/4/2003 2:45,31.8,1,59.6,1,0,0,31.5,1,26.9,1
8/4/2003 3:00,31.7,1,60.1,1,0,0,31.4,1,26.9,1
8/4/2003 3:15,31.7,1,60.1,1,0,0,31.4,1,26.9,1
8/4/2003 3:30,31.6,1,60.5,1,0,0,31.3,1,26.9,1
8/4/2003 3:45,31.5,1,60.9,1,0,0,31.2,1,27,1
8/4/2003 4:00,31.4,1,60.8,1,0,0,31.1,1,27,1
8/4/2003 4:15,31.3,1,60.8,1,0,0,31,1,27,1
8/4/2003 4:30,31.3,1,61.4,1,0,0,31,1,27,1
8/4/2003 4:45,31.3,1,50.9,1,0,0,30.9,1,27.1,1
8/4/2003 5:00,31.3,1,61.5,1,0,0,30.8,1,27.1,1
8/4/2003 5:15,31.3,1,61.7,1,0,0,30.7,1,27.1,1
8/4/2003 5:30,31.3,1,61.9,1,0,0,30.6,1,27.1,1
8/4/2003 5:45,31.2,1,56.4,1,0,0,30.6,1,27.1,1
8/4/2003 6:00,31.2,1,61.3,1,0,0,30.5,1,27.1,1
8/4/2003 6:15,31.1,1,62.2,1,0,0,30.4,1,26.4,1
8/4/2003 6:30,31.1,1,63,1,0,0,30.4,1,25.8,1
8/4/2003 6:45,31,1,63.6,1,0,0,30.3,1,24.9,1
8/4/2003 7:00,30.9,1,65,1,0,0,30.1,1,25,1
8/4/2003 7:15,30.6,1,65.8,1,0,0,30,1,25.2,1
8/4/2003 7:30,30.6,1,66.2,1,0,0,29.8,1,25.3,1
8/4/2003 7:45,30.6,1,66.4,1,0,0,29.8,1,25.4,1
8/4/2003 8:00,30.6,1,66.4,1,0,0,29.8,1,24.9,1
8/4/2003 8:15,30.7,1,65.8,1,0,0,29.8,1,25,1
8/4/2003 8:30,30.8,1,65.3,1,0,0,29.8,1,25.2,1
8/4/2003 8:45,31,1,65.1,1,0,0,29.9,1,24.7,1
8/4/2003 9:00,31.1,1,65.5,1,0,0,30.1,1,24.9,1
8/4/2003 9:15,31.2,1,65.1,1,0,0,30.3,1,25,1
8/4/2003 9:30,31.3,1,64.8,1,0,0,30.5,1,25.2,1
8/4/2003 9:45,31.4,1,64.5,1,0,0,30.7,1,25.3,1
8/4/2003 10:00,31.5,1,64.4,1,0,0,30.9,1,25.4,1
8/4/2003 10:15,31.6,1,64.3,1,0,0,31.2,1,25.6,1
8/4/2003 10:30,31.6,1,64.2,1,0,0,31.4,1,25.7,1
8/4/2003 10:45,31.7,1,54.2,1,0,0,31.6,1,25.8,1
8/4/2003 11:00,31.8,1,64.1,1,0,0,31.9,1,25.9,1
8/4/2003 11:15,31.8,1,64.1,1,0,0,32.1,1,26,1
8/4/2003 11:30,31.9,1,64.1,1,0,0,32.3,1,26.1,1
8/4/2003 11:45,31.9,1,64.2,1,0,0,32.6,1,26.2,1
8/4/2003 12:00,31.9,1,64.2,1,0,0,32.8,1,26.3,1
8/4/2003 12:15,32,1,64.2,1,0,0,33,1,26.4,1
8/4/2003 12:30,32.1,1,64.3,1,0,0,33.3,1,26.5,1
8/4/2003 12:45,32.1,1,64.3,1,0,0,33.5,1,26.6,1
8/4/2003 13:00,32.2,1,64.2,1,0,0,33.7,1,26.7,1
8/4/2003 13:15,32.3,1,64.2,1,0,0,34,1,26.8,1
8/4/2003 13:30,32.4,1,64.2,1,0,0,34.2,1,26.9,1
8/4/2003 13:45,32.4,1,59.3,1,0,0,34.4,1,27,1
8/4/2003 14:00,32.4,1,60.9,1,0,0,34.5,1,27.1,1
8/4/2003 14:15,32.6,1,61.4,1,0,0,34.6,1,27.2,1
8/4/2003 14:30,32.7,1,60.5,1,0,0,34.6,1,27.3,1
8/4/2003 14:45,32.9,1,59.7,1,0,0,34.6,1,27.4,1
8/4/2003 15:00,33,1,59.2,1,0,0,34.6,1,27.5,1
8/4/2003 15:15,33.1,1,59.2,1,0,0,34.5,1,27.6,1
8/4/2003 15:30,33.3,1,59.2,1,0,0,34.5,1,24.7,1
8/4/2003 15:45,33.4,1,58.8,1,0,0,34.6,1,25,1
8/4/2003 16:00,33.5,1,57.5,1,0,0,34.6,1,25.4,1
8/4/2003 16:15,33.7,1,57.7,1,0,0,34.8,1,25.7,1
8/4/2003 16:30,33.8,1,57.5,1,0,0,34.9,1,25.9,1
8/4/2003 16:45,33.8,1,56.9,1,0,0,35,1,26.1,1
8/4/2003 17:00,33.9,1,57.3,1,0,0,35,1,26.3,1
8/4/2003 17:15,34,1,57.8,1,0,0,35.1,1,26.5,1
8/4/2003 17:30,34,1,57.3,1,0,0,35.1,1,26.6,1
8/4/2003 17:45,34.1,1,57.6,1,0,0,35.1,1,26.8,1
8/4/2003 18:00,34.2,1,57,1,0,0,35,1,26.9,1
8/4/2003 18:15,34.2,1,56.3,1,0,0,34.9,1,27.1,1
8/4/2003 18:30,34.3,1,56.3,1,0,0,34.8,1,27.2,1
8/4/2003 18:45,34.3,1,56,1,0,0,34.7,1,27.3,1
8/4/2003 19:00,34.3,1,56,1,0,0,34.6,1,27.4,1
8/4/2003 19:15,34.3,1,56,1,0,0,34.5,1,27.5,1
8/4/2003 19:30,34.1,1,56.1,1,0,0,34.3,1,27.6,1
8/4/2003 19:45,34,1,55.8,1,0,0,34,1,27.6,1
8/4/2003 20:00,33.9,1,56.3,1,0,0,33.8,1,25,1
8/4/2003 20:15,34,1,56.4,1,0,0,33.5,1,25.5,1
8/4/2003 20:30,34,1,56.2,1,0,0,33.3,1,25.8,1
8/4/2003 20:45,34,1,56.5,1,0,0,33.1,1,26.1,1
8/4/2003 21:00,33.8,1,56.5,1,0,0,33,1,26.3,1
8/4/2003 21:15,33.6,1,56.8,1,0,0,32.8,1,26.4,1
8/4/2003 21:30,33.5,1,57.1,1,0,0,32.7,1,26.6,1
8/4/2003 21:45,33.8,1,56.3,1,0,0,32.5,1,26.7,1
8/4/2003 22:00,33.7,1,56.3,1,0,0,32.5,1,26.9,1
8/4/2003 22:15,33.7,1,56.2,1,0,0,32.3,1,27,1
8/4/2003 22:30,33.6,1,56.5,1,0,0,32.3,1,26.1,1
8/4/2003 22:45,33.5,1,57,1,0,0,32.2,1,26.4,1
8/4/2003 23:00,33.6,1,56.8,1,0,0,32.2,1,26.6,1
8/4/2003 23:15,33.5,1,56.9,1,0,0,32.2,1,26.8,1
8/4/2003 23:30,33.4,1,57,1,0,0,32.2,1,26.9,1
8/4/2003 23:45,33.4,1,57.4,1,0,0,32.2,1,27,1
8/5/2003 0:00,33.4,1,58.3,1,0,0,32.2,1,27.2,1
8/5/2003 0:15,33.3,1,58.6,1,0,0,32.1,1,26.1,1
8/5/2003 0:30,33.3,1,58.8,1,0,0,32,1,26.4,1
8/5/2003 0:45,33,1,59.2,1,0,0,31.8,1,26.6,1
8/5/2003 1:00,33.1,1,52.2,1,0,0,31.8,1,26.7,1
8/5/2003 1:15,33.2,1,59.8,1,0,0,31.8,1,26.8,1
8/5/2003 1:30,33.2,1,59.8,1,0,0,31.8,1,26.9,1
8/5/2003 1:45,33.2,1,60,1,0,0,31.8,1,27,1
8/5/2003 2:00,33.2,1,60.1,1,0,0,31.8,1,27.1,1
8/5/2003 2:15,33.2,1,60.1,1,0,0,31.7,1,27.2,1
8/5/2003 2:30,33.2,1,60.1,1,0,0,31.7,1,27.3,1
8/5/2003 2:45,33.2,1,60.2,1,0,0,31.7,1,27.3,1
8/5/2003 3:00,33.1,1,60.3,1,0,0,31.6,1,27.4,1
8/5/2003 3:15,33.1,1,60.4,1,0,0,31.6,1,27.4,1
8/5/2003 3:30,33.1,1,60.4,1,0,0,31.6,1,27.5,1
8/5/2003 3:45,33.1,1,59.3,1,0,0,31.5,1,27.5,1
8/5/2003 4:00,33,1,60.5,1,0,0,31.5,1,27.6,1
8/5/2003 4:15,33,1,60.6,1,0,0,31.4,1,27.6,1
8/5/2003 4:30,33,1,60.7,1,0,0,31.4,1,27.6,1
8/5/2003 4:45,32.9,1,60.7,1,0,0,31.3,1,27.7,1
8/5/2003 5:00,32.9,1,60.7,1,0,0,31.3,1,27.7,1
8/5/2003 5:15,32.9,1,60.8,1,0,0,31.2,1,27.7,1
8/5/2003 5:30,32.8,1,54.6,1,0,0,31.2,1,27.8,1
8/5/2003 5:45,32.8,1,61,1,0,0,31.1,1,27.8,1
8/5/2003 6:00,32.8,1,61.1,1,0,0,31.1,1,27.8,1
8/5/2003 6:15,32.8,1,61.1,1,0,0,31.1,1,26.6,1
8/5/2003 6:30,32.7,1,61.4,1,0,0,31,1,25.5,1
8/5/2003 6:45,32.6,1,61.7,1,0,0,31,1,25.7,1
8/5/2003 7:00,32.5,1,62.2,1,0,0,31.1,1,25.9,1
8/5/2003 7:15,32.5,1,63,1,0,0,31.1,1,26.1,1
8/5/2003 7:30,32.5,1,62.9,1,0,0,31.1,1,26.2,1
8/5/2003 7:45,32.4,1,62.7,1,0,0,31.1,1,26.3,1
8/5/2003 8:00,32.5,1,62,1,0,0,31.1,1,26.4,1
8/5/2003 8:15,32.5,1,61.5,1,0,0,31.1,1,26.4,1
8/5/2003 8:30,32.5,1,61.6,1,0,0,31.2,1,25.7,1
8/5/2003 8:45,32.7,1,61.5,1,0,0,31.2,1,25.9,1
8/5/2003 9:00,32.7,1,61.4,1,0,0,31.3,1,26.1,1
8/5/2003 9:15,32.8,1,61.4,1,0,0,31.4,1,25.7,1
8/5/2003 9:30,32.9,1,54.5,1,0,0,31.6,1,25.9,1
8/5/2003 9:45,32.9,1,61.3,1,0,0,31.7,1,26.1,1
8/5/2003 10:00,32.9,1,61.2,1,0,0,31.9,1,26.3,1
8/5/2003 10:15,33,1,52.7,1,0,0,32.1,1,26.4,1
8/5/2003 10:30,33,1,61.2,1,0,0,32.4,1,26.5,1
8/5/2003 10:45,33.1,1,61.1,1,0,0,32.6,1,26.7,1
8/5/2003 11:00,33.1,1,61.1,1,0,0,32.8,1,26.8,1
8/5/2003 11:15,33.2,1,61.1,1,0,0,33,1,26.9,1
8/5/2003 11:30,33.2,1,61.1,1,0,0,33.2,1,27,1
8/5/2003 11:45,33.3,1,61.1,1,0,0,33.4,1,27.1,1
8/5/2003 12:00,33.3,1,61.1,1,0,0,33.7,1,27.2,1
8/5/2003 12:15,33.4,1,61.1,1,0,0,33.9,1,27.3,1
8/5/2003 12:30,33.5,1,61.1,1,0,0,34.1,1,27.4,1
8/5/2003 12:45,33.5,1,60.9,1,0,0,34.3,1,27.5,1
8/5/2003 13:00,33.6,1,52.7,1,0,0,34.4,1,27.6,1
8/5/2003 13:15,33.7,1,60.9,1,0,0,34.6,1,27.6,1
8/5/2003 13:30,33.7,1,60.8,1,0,0,34.7,1,27.7,1
8/5/2003 13:45,33.5,1,60.3,1,0,0,34.6,1,27.8,1
8/5/2003 14:00,33.8,1,61.7,1,0,0,34.5,1,27.9,1
8/5/2003 14:15,34,1,61.8,1,0,0,34.5,1,26.2,1
8/5/2003 14:30,34,1,61.8,1,0,0,34.4,1,26.5,1
8/5/2003 14:45,33.9,1,61.5,1,0,0,34.4,1,26.7,1
8/5/2003 15:00,33.9,1,61.5,1,0,0,34.3,1,26.9,1
8/5/2003 15:15,33.8,1,56.8,1,0,0,34.2,1,27,1
8/5/2003 15:30,33.8,1,61.1,1,0,0,34.1,1,27.1,1
8/5/2003 15:45,33.8,1,61,1,0,0,34,1,27.1,1
8/5/2003 16:00,33.5,1,59,1,0,0,33.8,1,27.2,1
8/5/2003 16:15,33.4,1,58.8,1,0,0,33.7,1,27.2,1
8/5/2003 16:30,33.3,1,59.8,1,0,0,33.6,1,27.3,1
8/5/2003 16:45,33.3,1,60.1,1,0,0,33.4,1,27.3,1
8/5/2003 17:00,33.4,1,60.2,1,0,0,33.3,1,27.3,1
8/5/2003 17:15,33.3,1,60.6,1,0,0,33.2,1,27.4,1
8/5/2003 17:30,33.3,1,60.7,1,0,0,33.1,1,27.4,1
8/5/2003 17:45,33.2,1,59.2,1,0,0,33,1,27.5,1
8/5/2003 18:00,32.9,1,59.2,1,0,0,32.9,1,27.5,1
8/5/2003 18:15,32.7,1,59.8,1,0,0,32.8,1,27.5,1
8/5/2003 18:30,32.6,1,60.3,1,0,0,32.6,1,27.5,1
8/5/2003 18:45,32.1,1,61.4,1,0,0,32.5,1,27.5,1
8/5/2003 19:00,31.6,1,62.7,1,0,0,32.2,1,27.5,1
8/5/2003 19:15,31.4,1,63,1,0,0,31.7,1,25.5,1
8/5/2003 19:30,31.2,1,63.3,1,0,0,31.2,1,25.6,1
8/5/2003 19:45,31.2,1,63.2,1,0,0,30.9,1,25.7,1
8/5/2003 20:00,30.9,1,63.6,1,0,0,30.5,1,25.8,1
8/5/2003 20:15,31,1,63.3,1,0,0,30.3,1,25.7,1
8/5/2003 20:30,30.9,1,63.3,1,0,0,30.3,1,25.8,1
8/5/2003 20:45,30.9,1,63.4,1,0,0,30.2,1,25.9,1
8/5/2003 21:00,30.8,1,63.3,1,0,0,30.1,1,25.9,1
8/5/2003 21:15,30.7,1,63.5,1,0,0,30,1,26,1
8/5/2003 21:30,30.6,1,63.6,1,0,0,29.9,1,25.7,1
8/5/2003 21:45,30.6,1,63.8,1,0,0,29.8,1,25.7,1
8/5/2003 22:00,30.6,1,63.8,1,0,0,29.8,1,25.8,1
8/5/2003 22:15,30.5,1,64.1,1,0,0,29.7,1,25.9,1
8/5/2003 22:30,30.4,1,64.2,1,0,0,29.7,1,25.6,1
8/5/2003 22:45,30.3,1,64.5,1,0,0,29.6,1,25.7,1
8/5/2003 23:00,30.4,1,64.5,1,0,0,29.5,1,25.7,1
8/5/2003 23:15,30.2,1,64.7,1,0,0,29.4,1,25.8,1
8/5/2003 23:30,30.1,1,64.8,1,0,0,29.4,1,25.8,1
8/5/2003 23:45,30.1,1,65,1,0,0,29.3,1,25.9,1
8/6/2003 0:00,30,1,65.1,1,0,0,29.2,1,25.9,1
8/6/2003 0:15,29.9,1,65.2,1,0,0,29.2,1,26,1
8/6/2003 0:30,29.9,1,65.8,1,0,0,29.2,1,25.6,1
8/6/2003 0:45,30,1,66,1,0,0,29.1,1,25.6,1
8/6/2003 1:00,30,1,66.1,1,0,0,29.1,1,25.7,1
8/6/2003 1:15,30,1,66.1,1,0,0,29.1,1,25.7,1
8/6/2003 1:30,30,1,66.1,1,0,0,29.1,1,25.8,1
8/6/2003 1:45,30,1,66.1,1,0,0,29,1,25.8,1
8/6/2003 2:00,30,1,66,1,0,0,29,1,25.9,1
8/6/2003 2:15,30,1,66.1,1,0,0,28.9,1,25.9,1
8/6/2003 2:30,30,1,57.1,1,0,0,28.9,1,25.9,1
8/6/2003 2:45,30,1,66.1,1,0,0,28.8,1,26,1
8/6/2003 3:00,30,1,66.1,1,0,0,28.8,1,26,1
8/6/2003 3:15,30,1,66,1,0,0,28.7,1,26,1
8/6/2003 3:30,29.9,1,66.3,1,0,0,28.7,1,26,1
8/6/2003 3:45,29.9,1,66.4,1,0,0,28.6,1,26.1,1
8/6/2003 4:00,29.9,1,66.4,1,0,0,28.6,1,26.1,1
8/6/2003 4:15,29.9,1,66.4,1,0,0,28.5,1,26.1,1
8/6/2003 4:30,29.9,1,66.5,1,0,0,28.5,1,26.1,1
8/6/2003 4:45,29.8,1,66.4,1,0,0,28.5,1,26.1,1
8/6/2003 5:00,29.8,1,66.5,1,0,0,28.4,1,26.2,1
8/6/2003 5:15,29.8,1,66.5,1,0,0,28.4,1,26.2,1
8/6/2003 5:30,29.8,1,66.7,1,0,0,28.3,1,26.2,1
8/6/2003 5:45,29.8,1,66.8,1,0,0,28.3,1,26.2,1
8/6/2003 6:00,29.8,1,64.1,1,0,0,28.3,1,26.2,1
8/6/2003 6:15,29.7,1,67.2,1,0,0,28.3,1,25.6,1
8/6/2003 6:30,29.7,1,67.2,1,0,0,28.2,1,25.7,1
8/6/2003 6:45,29.6,1,67.4,1,0,0,28.2,1,25.3,1
8/6/2003 7:00,29.5,1,67.7,1,0,0,28.2,1,25.2,1
8/6/2003 7:15,29.5,1,67.7,1,0,0,28.2,1,25.3,1
8/6/2003 7:30,29.5,1,67.7,1,0,0,28.2,1,25.3,1